DMSP 5D-2 F13 DEB, 40468

Orbit data source: Space-Track

DMSP 5D-2 F13 DEB, 40468 is space debris in SSO originally from a launch on Fri, 24 Mar 1995 UTC launched from the Air Force Western Test Range (AFWTR). Debris objects in space refer to the collection of defunct objects orbiting the Earth. Examples of debris include non-operational satellites, rocket bodies, and fragments generated from explosions, collisions, or faulty payload assembly.

Loading next visibility...
Identifier
40468, 1995-015BL
Orbit
SSO
Country
Flag of USUS
Related business
Manufacturer
Unknown
Mission
Spacecraft
Bus & Motor
Unknown
Mass
Unknown
Launch date (UTC)
1995-03-24 (31 years ago)
Launch vehicle
Unknown
Launch site
Air Force Western Test Range (AFWTR)
Object type
Payload
Rocket body
Debris
Shape & HBR
Unknown shape, 0.1 m
Radar Cross Section
Small (<0.1 m²)

Expand to show TLE details & history
Last TLE update: 2 days ago

TLE from 2 days ago
0 DMSP 5D-2 F13 DEB
1 40468U 95015BL  25342.04777725  .00007829  00000-0  24404-2 0  9999
2 40468  98.6448  17.9278 0008726  96.7483 263.4698 14.41120773558755
Epoch: 2025-12-08T01:08Z
TLE epoch observation values (Epoch: 2025-12-08T01:08:47.954Z)
Latitude
-0.00008°
Longitude
-76.32441°
Altitude
758.457 km
Speed
7.475 km/s
True Right ascension
01h 11m 42s
True Declination
0° 00' 00"
Sunlit
Object was in full shadow at epoch
Visualization orbit readout
Latitude
Unknown
Longitude
Unknown
Altitude
Unknown
Speed
Unknown
Apparent Right ascension
Unknown
Apparent Declination
Unknown
Sunlit
N/A
Visualization observer readout
Local Sidereal Time
18:16:11
Azimuth
Unknown
Elevation
Unknown
Doppler factor
Unknown
Orbital elements
Apogee altitude
758.147 km
Perigee altitude
745.703 km
Semi-major axis
7,130.062 km
Eccentricity
0.00087
Inclination
98.6448°
RAAN
17.9278°
Arg. of periapsis
96.7483°
True anomaly
263.37047°
Mean anomaly
263.4698°
Eccentric anomaly
263.42013°
Mean motion
3.60498 °/min
Orbital period
99.86 mins
BSTAR
0.0024404
Loading maneuver chart data...
Computing Atmospheric mass density...

Documentation

Showing up to 5 results
|